Theta_e
309 307 308 309 307 306 307 305 305 305 306 307 309 309 308 308 308 309 310 310 310 310 313 313 312 312 312 313 313 313 313 313 313 313 313 313 313 313 313 312 311 309 306 305
306 307 307 307 306 306 307 308 308 308 307 304 306 308 309 309 309 310 310 310 310 311 313 312 313 313 313 313 314 314 313 313 313 313 313 313 313 313 312 311 310 309 307 305
308 309 307 306 307 307 305 306 308 307 306 305 304 308 307 307 307 309 312 310 311 311 312 312 312 313 313 313 313 313 312 313 313 312 311 312 311 311 311 310 310 309 307 306
306 306 307 306 306 306 309 306 307 306 307 308 307 310 311 312 311 309 309 311 311 311 311 312 313 314 314 313 312 312 312 311 311 311 311 311 312 313 313 313 311 310 308 307
309 306 307 307 308 305 308 307 307 306 306 307 307 308 307 307 309 309 309 310 311 311 311 312 313 313 313 313 313 312 311 311 310 309 310 310 310 310 310 309 310 310 309 306
305 306 305 307 306 305 307 308 305 303 305 308 308 309 309 309 310 310 310 310 310 310 311 312 311 311 311 312 313 312 311 310 309 308 307 308 308 308 309 309 308 308 308 307
305 305 306 306 308 306 307 307 309 310 309 313 306 307 310 309 306 309 308 310 308 310 310 309 309 311 311 312 312 310 310 308 306 306 307 307 307 306 306 307 307 307 307 307
306 315 305 304 307 308 306 308 312 316 310 317 306 310 310 307 308 308 309 308 308 306 306 306 307 308 309 310 311 309 308 306 305 304 303 304 304 303 304 305 305 305 306 307
314 315 305 303 305 307 306 308 308 310 302 305 311 310 309 305 306 306 305 303 302 302 303 303 305 305 305 305 306 307 306 305 303 302 304 303 302 302 302 302 302 303 304 305
309 313 310 306 305 305 306 306 309 308 314 315 313 311 312 311 310 304 301 300 300 301 299 298 298 299 301 302 302 302 303 303 302 303 303 303 304 303 302 301 302 302 303 303
310 313 313 312 307 307 306 307 307 307 314 317 316 314 309 306 300 300 299 298 297 298 298 298 298 298 299 299 299 300 301 301 302 302 302 303 303 303 302 302 302 301 301 302
312 315 315 315 311 305 307 308 309 313 313 310 313 314 312 301 299 296 295 294 294 294 294 295 295 295 296 296 297 297 298 298 298 298 298 300 302 302 302 302 301 301 301 301
311 313 315 313 309 307 309 309 309 312 312 315 316 314 308 306 298 294 293 292 292 292 292 292 293 293 292 292 293 293 295 297 297 297 298 298 298 300 301 301 301 300 299 299
309 311 314 315 312 310 312 311 309 310 310 311 310 309 307 306 299 293 294 292 291 291 290 290 290 290 290 290 290 290 291 290 294 295 295 297 297 296 298 299 299 299 298 297
306 309 308 309 309 304 304 304 303 304 304 305 305 304 304 298 293 292 291 292 293 292 289 289 289 288 288 288 289 289 288 288 288 290 293 293 293 295 296 297 298 298 297 297
300 302 301 297 300 301 300 299 299 300 300 300 301 301 293 292 291 290 289 290 291 290 288 288 287 287 287 286 285 285 286 286 286 287 288 289 291 292 294 295 296 297 297 296
297 298 296 300 299 294 296 295 296 295 295 296 297 294 289 289 290 290 289 289 290 288 288 287 287 286 285 285 285 285 285 285 286 286 285 285 286 287 289 291 294 296 296 297
295 295 287 292 284 287 293 291 295 296 295 291 288 287 289 290 290 289 289 289 288 288 287 287 287 286 285 285 285 285 285 285 285 285 285 285 285 285 285 286 288 290 295 296
293 293 284 285 282 290 292 291 290 291 291 289 288 289 291 291 290 289 289 288 288 288 287 287 287 286 285 285 284 284 284 284 284 284 284 284 284 284 284 285 285 287 289 293
292 293 290 275 285 285 290 288 290 287 286 282 287 285 288 290 286 287 288 288 288 288 288 287 286 285 285 284 283 283 283 284 284 284 284 284 284 284 284 284 284 284 285 288
280 281 292 292 291 288 289 289 289 285 287 290 290 289 289 288 289 289 289 288 288 288 287 286 285 285 285 284 282 282 281 282 281 281 283 284 284 284 284 283 284 284 284 285
287 281 277 273 278 286 286 288 288 289 290 289 289 289 289 289 289 289 289 288 287 286 286 285 284 284 284 283 282 282 281 280 278 278 280 281 282 283 283 283 283 283 282 283
287 287 284 285 284 287 289 290 290 290 289 289 289 289 289 288 288 289 288 286 285 284 283 282 281 281 282 281 280 278 280 276 276 275 275 276 277 279 281 280 281 280 280 281
288 288 288 289 289 289 289 290 290 290 290 290 289 289 289 288 288 286 285 284 283 282 280 278 278 277 278 278 276 275 274 273 272 272 273 273 272 274 276 278 278 278 278 280
290 287 287 289 289 289 289 290 290 290 289 289 288 287 286 285 284 282 282 280 279 278 277 275 274 274 273 273 272 271 270 269 269 269 268 268 268 268 270 272 274 274 276 278
290 290 290 289 290 289 290 289 289 289 288 287 286 285 284 282 281 279 279 277 276 275 273 272 271 269 269 268 267 267 266 265 265 265 265 265 265 265 266 267 271 273 273 276
Wind_Speed
3 3 8 18 15 2 2 5 7 7 8 5 19 18 17 25 27 35 39 36 37 36 40 32 30 28 23 21 21 23 27 29 38 44 48 51 53 52 53 51 49 48 46 45
3 6 13 1 3 7 8 12 13 11 13 5 10 20 21 23 30 36 34 37 28 30 31 30 24 19 16 16 16 18 22 26 31 39 44 49 53 55 55 54 53 51 50 48
9 6 5 7 4 7 5 6 12 12 6 5 8 7 3 5 10 23 32 29 30 24 22 18 20 24 28 25 18 18 18 22 28 34 42 47 52 52 55 58 56 54 52 50
7 5 7 3 6 10 9 10 13 6 4 4 3 8 3 17 17 10 21 22 20 14 11 19 30 33 36 34 30 23 22 22 27 32 38 44 48 52 54 54 55 55 53 52
8 6 4 5 9 7 10 1 3 2 3 3 3 4 6 1 5 5 7 14 11 12 18 31 34 34 34 36 36 33 27 25 26 30 36 40 45 48 50 48 51 53 54 54
6 4 6 8 4 7 2 1 3 4 1 4 11 9 4 3 4 1 6 13 14 10 21 33 35 35 31 31 34 36 35 27 23 24 29 37 40 43 45 48 49 48 51 55
3 4 4 3 1 2 3 5 4 4 1 7 4 3 5 7 6 4 6 16 9 15 33 32 32 32 31 33 34 31 29 26 21 18 22 29 34 37 41 44 45 45 47 50
4 11 7 4 7 7 7 9 6 6 3 13 2 7 5 8 6 8 15 15 10 32 28 26 27 27 26 28 28 25 23 27 24 19 18 18 24 32 36 40 43 43 45 44
5 9 3 5 3 2 3 5 2 0 2 2 6 12 7 5 7 6 21 29 34 34 32 29 27 27 27 27 27 26 24 24 22 22 21 21 22 25 31 36 40 41 42 42
4 7 3 3 1 2 6 3 1 2 2 6 12 7 7 9 11 17 18 26 31 31 34 34 35 32 27 25 25 23 22 22 23 22 21 21 20 23 26 31 35 37 39 41
8 6 8 3 4 7 1 3 3 2 5 4 5 10 7 11 10 8 9 17 23 27 28 28 29 29 29 28 27 26 26 26 25 23 24 25 24 23 24 27 31 34 36 38
9 5 6 13 12 8 8 8 7 11 17 12 18 21 13 13 11 10 10 12 16 18 20 23 25 28 30 32 34 32 28 28 28 27 26 25 26 27 25 25 25 29 35 38
2 4 4 5 3 3 4 1 6 9 10 19 14 7 7 5 10 11 9 12 15 18 23 28 28 28 31 32 33 34 34 32 30 31 30 29 28 30 30 28 27 25 28 34
3 3 12 15 10 6 5 7 7 4 3 5 9 13 17 22 13 12 8 8 11 14 22 25 26 28 29 30 32 34 34 34 33 32 32 32 32 33 34 34 30 30 29 31
3 11 13 17 8 5 6 10 14 15 17 13 21 22 24 7 8 10 9 9 10 14 17 20 24 26 27 28 30 31 33 35 35 33 34 35 33 34 35 36 36 31 30 31
4 3 4 4 7 7 12 18 19 18 21 21 22 25 6 1 7 11 15 11 11 8 18 20 21 23 25 27 30 31 31 33 37 37 36 36 36 34 36 38 38 39 34 32
2 2 1 9 11 8 12 17 18 10 1 2 9 2 1 3 6 9 17 14 15 23 26 25 24 22 23 24 26 29 32 33 35 38 41 43 42 41 37 37 39 37 39 36
12 12 3 8 4 5 6 4 3 4 3 4 3 4 8 9 9 12 15 14 20 28 30 30 31 29 27 27 27 29 30 32 35 37 39 43 46 47 46 43 40 37 36 37
15 8 2 3 6 8 11 4 5 4 5 8 6 5 9 8 9 20 14 15 22 28 31 30 32 34 35 35 33 33 35 37 38 40 42 43 45 48 50 49 47 42 40 35
7 10 5 2 4 7 5 3 4 4 4 7 10 6 8 6 2 9 20 18 25 32 34 34 35 37 40 40 39 40 40 42 44 45 45 46 49 51 52 52 53 51 45 43
2 2 12 11 6 6 5 5 8 5 5 10 12 18 18 7 18 32 27 26 27 33 35 36 37 41 44 44 45 47 47 48 46 46 47 50 51 52 56 55 55 52 49 44
5 4 4 3 2 7 6 2 5 6 22 23 23 25 23 26 30 34 36 30 30 35 38 38 41 45 47 47 49 52 54 53 51 53 57 54 52 55 55 58 57 54 49 46
4 6 4 9 6 5 10 15 32 31 25 33 28 32 28 27 32 31 28 30 35 36 38 42 44 46 49 50 50 53 60 56 58 60 62 63 62 56 55 55 57 54 47 45
6 10 9 13 12 17 31 37 36 35 35 37 34 30 30 26 23 24 29 35 37 42 42 40 43 49 54 55 54 54 56 54 59 64 66 64 61 61 57 54 54 52 47 36
11 4 7 15 15 22 30 33 35 30 27 26 25 21 18 18 22 26 33 37 40 43 42 39 40 44 54 54 56 54 54 53 59 60 58 56 52 51 51 51 49 46 45 34
17 19 11 15 24 21 27 30 21 18 18 20 19 19 19 21 25 30 36 37 40 43 45 48 48 45 50 51 54 51 49 49 50 52 50 46 44 44 43 44 50 44 37 35
Wind_Direction
169 132 197 219 208 96 173 228 248 259 256 300 278 275 276 273 276 273 273 275 278 284 302 307 312 317 311 296 284 276 266 260 249 243 239 238 239 237 237 236 236 234 233 232
54 231 228 29 156 233 254 268 273 275 261 195 265 282 278 262 259 266 275 280 283 294 305 317 336 337 336 327 308 286 278 265 254 243 244 241 241 239 238 237 235 232 231 231
196 218 187 194 191 255 228 229 255 258 320 247 313 272 228 269 270 266 271 272 285 297 315 355 27 29 29 16 337 311 294 277 265 253 244 240 239 240 241 238 235 233 232 231
232 251 189 148 212 206 267 236 257 276 352 249 33 292 125 285 272 291 292 291 311 325 38 39 33 23 17 12 4 350 306 282 269 259 248 245 244 244 245 244 241 236 233 232
246 179 163 182 219 146 231 250 245 209 215 336 278 265 276 227 270 282 292 20 63 87 51 28 20 13 12 7 4 354 341 312 282 264 258 252 247 248 249 249 246 240 234 233
261 320 179 210 186 179 120 71 48 51 91 272 211 196 309 203 192 120 353 25 26 76 33 7 5 7 11 9 3 357 350 340 312 286 267 261 258 254 251 251 249 247 239 234
307 238 268 177 160 76 123 74 321 314 359 244 358 257 257 287 255 3 358 333 22 33 6 9 10 10 5 2 359 359 2 359 342 314 290 276 269 264 261 258 254 250 246 239
287 296 190 180 204 191 179 169 174 230 246 291 119 246 255 230 337 84 34 25 17 13 22 23 11 9 8 6 360 357 7 4 359 346 324 301 285 276 270 266 263 258 253 250
206 254 243 220 157 165 165 188 196 141 116 285 247 277 318 349 97 91 35 33 26 24 21 20 20 19 15 14 10 358 351 353 357 353 347 333 311 293 283 276 271 266 260 254
332 289 243 298 85 259 181 177 85 23 224 231 270 273 225 318 346 31 28 16 13 15 17 15 11 10 11 10 7 4 2 1 358 354 344 333 320 305 295 286 279 272 266 259
170 222 264 358 205 201 151 225 222 334 165 240 253 263 131 89 72 53 32 29 15 6 3 1 2 0 356 355 358 358 354 352 349 348 344 334 325 315 299 287 284 281 270 262
193 190 231 243 241 212 190 212 222 244 261 230 241 247 307 84 84 70 44 34 21 16 8 5 2 0 359 356 350 352 350 348 348 347 346 339 331 326 312 300 288 278 277 272
84 246 265 282 252 14 191 280 252 275 280 251 255 248 10 134 112 53 53 28 24 15 3 3 3 3 4 1 357 353 351 346 342 340 338 342 340 336 328 314 299 284 275 269
308 225 249 258 265 350 262 276 304 257 254 307 284 308 312 306 344 24 45 27 10 3 356 354 357 358 358 356 353 351 351 351 342 343 342 338 340 340 339 329 313 300 289 277
296 261 267 265 273 311 284 271 270 260 264 267 288 283 277 300 324 346 344 342 331 342 352 345 344 348 347 344 342 341 344 343 343 343 335 335 335 333 332 334 331 312 297 288
6 300 346 273 281 273 287 283 268 271 271 268 265 265 91 358 317 318 330 318 315 318 337 336 339 344 342 342 340 341 341 340 340 340 337 333 329 331 325 324 327 332 317 300
267 255 273 271 301 327 285 258 265 249 217 267 262 258 209 257 257 281 322 313 311 321 321 327 333 330 331 331 333 334 337 336 335 336 337 338 333 327 326 321 317 320 324 317
242 242 170 267 39 264 277 357 108 194 157 145 126 207 215 232 266 283 303 282 310 324 322 320 322 320 318 318 320 321 325 328 330 331 331 332 332 330 327 321 317 311 308 314
223 239 266 202 211 301 303 206 174 164 238 196 182 230 257 270 297 285 277 270 307 315 314 310 312 313 313 314 316 315 316 317 320 324 324 324 325 325 325 321 315 314 308 300
209 219 188 90 196 219 239 243 140 110 284 219 199 227 252 237 249 267 288 286 311 317 312 309 310 310 308 310 311 310 309 310 314 316 316 317 318 318 318 319 316 312 309 301
27 20 217 228 252 289 241 208 139 89 271 211 253 273 256 205 249 276 283 280 299 306 306 307 306 306 305 306 308 308 308 306 308 307 306 308 309 311 311 310 309 309 303 298
186 178 202 75 49 278 196 86 159 226 299 297 295 289 281 279 283 279 278 282 298 300 303 304 305 306 305 305 307 305 304 308 306 304 303 301 301 302 302 302 302 302 300 295
268 190 197 195 212 221 193 264 283 286 287 289 284 294 297 290 289 282 274 288 298 303 305 307 307 305 304 305 305 302 303 304 303 301 301 300 300 296 295 295 295 296 294 289
250 218 240 266 253 253 265 271 276 283 284 290 292 296 297 289 281 279 291 301 304 306 308 308 306 305 304 305 302 299 300 299 298 298 298 298 298 297 295 291 290 290 288 278
242 196 243 257 258 263 265 264 269 281 291 285 290 293 288 285 293 303 302 305 308 308 309 307 303 300 299 301 299 298 298 298 297 297 296 296 295 296 295 291 286 284 279 269
241 249 250 257 259 254 267 273 280 288 278 282 285 288 294 304 306 306 305 309 311 311 311 311 309 304 302 300 299 298 298 298 298 297 296 294 293 292 290 290 290 282 277 274